Location: Unspecified
(45.6635°N, 122.4424°W)
Time: 07:21:03
(UTC+00:00)

Cosmos 2058 - Visible Passes

Search period start: 19 October 2017 00:00
Search period end: 29 October 2017 00:00
Orbit: 564 x 584 km, 82.5° (Epoch: 19 October)

Date Brightness Start Highest point End Pass type
(mag) Time Alt. Az. Time Alt. Az. Time Alt. Az.
19 Oct 4.5 02:53:43 10° NNW 02:57:35 36° W 03:01:24 10° SSW visible
20 Oct 5.1 02:57:13 10° NNW 03:00:48 28° W 03:04:21 10° SSW visible
20 Oct 6.4 13:48:54 10° ESE 13:50:36 12° E 13:52:18 10° ENE visible
21 Oct 5.6 03:00:47 10° NW 03:04:00 22° W 03:07:11 10° SW visible
21 Oct 6.2 13:51:12 10° ESE 13:53:46 16° E 13:56:20 10° NE visible
22 Oct 6.0 03:04:29 10° NW 03:07:11 17° W 03:09:52 10° SW visible
22 Oct 6.0 13:53:49 10° SE 13:56:56 20° E 14:00:04 10° NE visible
23 Oct 6.4 03:08:26 10° NW 03:10:20 13° W 03:12:15 10° WSW visible
23 Oct 5.6 13:56:38 10° SE 14:00:08 26° E 14:03:40 10° NNE visible
24 Oct 5.0 13:59:32 10° SSE 14:03:21 34° E 14:07:10 10° NNE visible
25 Oct 3.1 01:36:21 10° N 01:40:32 81° W 01:44:39 10° S visible
25 Oct 4.3 14:02:34 10° SSE 14:06:35 45° E 14:10:37 10° NNE visible
26 Oct 3.6 01:39:40 10° NNW 01:43:48 61° W 01:47:52 10° S visible
26 Oct 3.7 14:05:41 10° S 14:09:49 60° E 14:13:59 10° NNE visible
27 Oct 4.2 01:43:03 10° NNW 01:47:02 45° W 01:50:58 10° SSW visible
27 Oct 3.1 14:08:53 10° S 14:13:06 79° E 14:17:19 10° N visible
28 Oct 4.9 01:46:29 10° NNW 01:50:16 34° W 01:54:00 10° SSW visible
28 Oct 2.9 14:12:10 10° SSW 14:16:22 78° W 14:20:36 10° N visible
